Location: Demre
(36.2444°N, 29.9850°E)
Time: 12:16:04
(UTC+00:00)

Resurs 01 Rocket - Pass Details

Date: 11 March 2026
Orbit: 625 x 637 km, 97.7° (Epoch: 11 April)

Event Time Altitude Azimuth Distance (km) Brightness Sun altitude
Rises 17:54:05 0° 199° (SSW) 2,920 5.1 -22.9°
Reaches altitude 10° 17:56:44 10° 216° (SW) 2,017 4.4 -23.4°
Maximum altitude 18:00:05 21° 265° (W) 1,425 4.1 -24.1°
Drops below altitude 10° 18:03:26 10° 315° (NW) 2,028 5.0 -24.7°
Sets 18:06:07 0° 332° (NNW) 2,940 5.7 -25.3°
